Satellite: CO-58
Catalog number: 28895
Epoch time: 14002.54960665
Element set: 661
Inclination: 097.8472 deg
RA of node: 212.9161 deg
Eccentricity: 0.0017920
Arg of perigee: 169.4596 deg
Mean anomaly: 190.6985 deg
Mean motion: 14.61466623 rev/day
Decay rate: 1.087e-05 rev/day^2
Epoch rev: 43605
Checksum: 344
Satellite: FALCON
Catalog number: 30776
Epoch time: 14002.20681794
Element set: 771
Inclination: 035.4310 deg
RA of node: 058.9110 deg
Eccentricity: 0.0002156
Arg of perigee: 220.2893 deg
Mean anomaly: 192.9987 deg
Mean motion: 15.13000471 rev/day
Decay rate: 1.0513e-04 rev/day^2
Epoch rev: 37555
Checksum: 271
Satellite: MAST
Catalog number: 31126
Epoch time: 14002.20521100
Element set: 938
Inclination: 097.8982 deg
RA of node: 351.9614 deg
Eccentricity: 0.0093635
Arg of perigee: 151.4490 deg
Mean anomaly: 270.1211 deg
Mean motion: 14.54880839 rev/day
Decay rate: 6.44e-06 rev/day^2
Epoch rev: 35625
Checksum: 281
Satellite: CAPE1
Catalog number: 31130
Epoch time: 14002.52311828
Element set: 943
Inclination: 097.9181 deg
RA of node: 348.7376 deg
Eccentricity: 0.0100456
Arg of perigee: 167.3424 deg
Mean anomaly: 193.0332 deg
Mean motion: 14.53907252 rev/day
Decay rate: 8.10e-06 rev/day^2
Epoch rev: 35573
Checksum: 278
Satellite: COMPASS
Catalog number: 32787
Epoch time: 14002.12250051
Element set: 820
Inclination: 097.7260 deg
RA of node: 060.3496 deg
Eccentricity: 0.0014414
Arg of perigee: 014.9733 deg
Mean anomaly: 345.1907 deg
Mean motion: 14.86555084 rev/day
Decay rate: 3.905e-05 rev/day^2
Epoch rev: 30750
Checksum: 275
Satellite: AAUSAT2
Catalog number: 32788
Epoch time: 14002.13118579
Element set: 805
Inclination: 097.7270 deg
RA of node: 061.1622 deg
Eccentricity: 0.0013951
Arg of perigee: 014.0164 deg
Mean anomaly: 346.1436 deg
Mean motion: 14.87120115 rev/day
Decay rate: 4.772e-05 rev/day^2
Epoch rev: 30755
Checksum: 275
Satellite: DO-64
Catalog number: 32789
Epoch time: 14002.84071409
Element set: 841
Inclination: 097.7438 deg
RA of node: 066.9375 deg
Eccentricity: 0.0012768
Arg of perigee: 001.3050 deg
Mean anomaly: 058.7569 deg
Mean motion: 14.90625326 rev/day
Decay rate: 1.1405e-04 rev/day^2
Epoch rev: 30784
Checksum: 318
Satellite: CO-66
Catalog number: 32791
Epoch time: 14002.70645957
Element set: 800
Inclination: 097.7258 deg
RA of node: 059.9917 deg
Eccentricity: 0.0014980
Arg of perigee: 015.5862 deg
Mean anomaly: 099.8631 deg
Mean motion: 14.85495257 rev/day
Decay rate: 3.597e-05 rev/day^2
Epoch rev: 30748
Checksum: 360
Satellite: RS-30
Catalog number: 32953
Epoch time: 14002.83018079
Element set: 523
Inclination: 082.5036 deg
RA of node: 304.0345 deg
Eccentricity: 0.0018718
Arg of perigee: 154.0050 deg
Mean anomaly: 206.1973 deg
Mean motion: 12.43041350 rev/day
Decay rate: 1.0e-07 rev/day^2
Epoch rev: 25471
Checksum: 243
Satellite: METEOR-M
Catalog number: 35865
Epoch time: 14002.72077832
Element set: 131
Inclination: 098.5758 deg
RA of node: 054.9578 deg
Eccentricity: 0.0001938
Arg of perigee: 200.5924 deg
Mean anomaly: 159.5169 deg
Mean motion: 14.21903558 rev/day
Decay rate: -4.0e-08 rev/day^2
Epoch rev: 22282
Checksum: 305
Satellite: RS-38
Catalog number: 35869
Epoch time: 14002.71854791
Element set: 82
Inclination: 098.5688 deg
RA of node: 054.8079 deg
Eccentricity: 0.0004164
Arg of perigee: 207.3515 deg
Mean anomaly: 152.7438 deg
Mean motion: 14.22168960 rev/day
Decay rate: 4.4e-07 rev/day^2
Epoch rev: 22285
Checksum: 323
Satellite: JUGNU
Catalog number: 37839
Epoch time: 14002.78267926
Element set: 534
Inclination: 019.9609 deg
RA of node: 177.3408 deg
Eccentricity: 0.0019043
Arg of perigee: 320.7828 deg
Mean anomaly: 168.0871 deg
Mean motion: 14.12228079 rev/day
Decay rate: 4.47e-06 rev/day^2
Epoch rev: 11514
Checksum: 310
Satellite: SRMSAT
Catalog number: 37841
Epoch time: 14001.91519750
Element set: 533
Inclination: 019.9705 deg
RA of node: 198.5958 deg
Eccentricity: 0.0011894
Arg of perigee: 258.7534 deg
Mean anomaly: 243.0555 deg
Mean motion: 14.10284095 rev/day
Decay rate: 3.89e-06 rev/day^2
Epoch rev: 11486
Checksum: 317
Satellite: RAX-2
Catalog number: 37853
Epoch time: 14001.91072088
Element set: 686
Inclination: 101.7069 deg
RA of node: 312.8551 deg
Eccentricity: 0.0226820
Arg of perigee: 176.6075 deg
Mean anomaly: 226.9867 deg
Mean motion: 14.86150422 rev/day
Decay rate: 4.959e-05 rev/day^2
Epoch rev: 11793
Checksum: 320
Satellite: AUBIESAT
Catalog number: 37854
Epoch time: 14002.83786451
Element set: 671
Inclination: 101.7118 deg
RA of node: 315.5505 deg
Eccentricity: 0.0225788
Arg of perigee: 171.8898 deg
Mean anomaly: 248.5898 deg
Mean motion: 14.87129249 rev/day
Decay rate: 8.583e-05 rev/day^2
Epoch rev: 11810
Checksum: 341
Satellite: HRBE
Catalog number: 37855
Epoch time: 14002.82695668
Element set: 680
Inclination: 101.7119 deg
RA of node: 315.1191 deg
Eccentricity: 0.0227326
Arg of perigee: 172.7327 deg
Mean anomaly: 243.1331 deg
Mean motion: 14.86650317 rev/day
Decay rate: 7.301e-05 rev/day^2
Epoch rev: 11808
Checksum: 286
Satellite: RS-39
Catalog number: 38051
Epoch time: 14002.81312370
Element set: 123
Inclination: 051.6349 deg
RA of node: 322.2558 deg
Eccentricity: 0.0005800
Arg of perigee: 269.7516 deg
Mean anomaly: 174.1644 deg
Mean motion: 15.41153716 rev/day
Decay rate: 3.1306e-04 rev/day^2
Epoch rev: 10846
Checksum: 272
Satellite: E-STAR
Catalog number: 38079
Epoch time: 14002.51564271
Element set: 698
Inclination: 069.4704 deg
RA of node: 056.1857 deg
Eccentricity: 0.0513511
Arg of perigee: 229.1259 deg
Mean anomaly: 126.4762 deg
Mean motion: 14.72355901 rev/day
Decay rate: 9.4962e-04 rev/day^2
Epoch rev: 9879
Checksum: 332
Satellite: GOLIAT
Catalog number: 38085
Epoch time: 14002.88037575
Element set: 683
Inclination: 069.4722 deg
RA of node: 059.4341 deg
Eccentricity: 0.0527983
Arg of perigee: 230.7897 deg
Mean anomaly: 124.5246 deg
Mean motion: 14.69067426 rev/day
Decay rate: 9.9075e-04 rev/day^2
Epoch rev: 9873
Checksum: 350
Satellite: HORYU-2
Catalog number: 38340
Epoch time: 14002.30898379
Element set: 717
Inclination: 098.2412 deg
RA of node: 317.0230 deg
Eccentricity: 0.0012754
Arg of perigee: 347.3202 deg
Mean anomaly: 012.7721 deg
Mean motion: 14.71620550 rev/day
Decay rate: 1.921e-05 rev/day^2
Epoch rev: 8739
Checksum: 271
Satellite: RS-40
Catalog number: 38736
Epoch time: 14002.06382617
Element set: 465
Inclination: 082.4790 deg
RA of node: 031.1247 deg
Eccentricity: 0.0020232
Arg of perigee: 251.3772 deg
Mean anomaly: 108.5117 deg
Mean motion: 12.42875217 rev/day
Decay rate: 1.0e-07 rev/day^2
Epoch rev: 6495
Checksum: 268
Satellite: PROITERES
Catalog number: 38756
Epoch time: 14002.77862929
Element set: 448
Inclination: 098.2383 deg
RA of node: 088.3542 deg
Eccentricity: 0.0012171
Arg of perigee: 185.0973 deg
Mean anomaly: 175.0102 deg
Mean motion: 14.74553442 rev/day
Decay rate: 7.80e-06 rev/day^2
Epoch rev: 7080
Checksum: 304
Satellite: BEESAT-3
Catalog number: 39134
Epoch time: 14002.80612593
Element set: 465
Inclination: 064.8816 deg
RA of node: 300.8699 deg
Eccentricity: 0.0012426
Arg of perigee: 333.9939 deg
Mean anomaly: 026.1042 deg
Mean motion: 15.02399926 rev/day
Decay rate: 9.817e-05 rev/day^2
Epoch rev: 3879
Checksum: 323
